CW2969 Weather Reports


Display with metric or nautical units.
time (UTC)temp
F
wind
direction
speed
MPH
gust
MPH
rain 1hr
in
rain 24hr
in
rain mn
in
humidity
%
barometer
mb
20260504195010 82 188 3.0 11.0 0.00 0.00 0.00 62 1010.6
20260504194509 82 266 2.0 9.0 0.00 0.00 0.00 61 1010.7
20260504194010 82 141 5.0 9.0 0.00 0.00 0.00 61 1010.8
20260504193509 81 123 3.0 10.0 0.00 0.00 0.00 62 1010.8
20260504193009 81 221 3.0 14.0 0.00 0.00 0.00 62 1010.8
20260504192510 81 227 4.0 14.0 0.00 0.00 0.00 62 1010.9
20260504191509 81 210 3.0 17.0 0.00 0.00 0.00 62 1011.2
20260504191009 81 216 2.0 10.0 0.00 0.00 0.00 63 1011.2
20260504190510 81 245 7.0 10.0 0.00 0.00 0.00 63 1011.1
20260504190009 81 211 2.0 8.0 0.00 0.00 0.00 63 1011.2
20260504185511 80 34 1.0 11.0 0.00 0.00 0.00 64 1011.2
20260504185009 80 264 2.0 11.0 0.00 0.00 0.00 64 1011.2
20260504184509 80 275 7.0 14.0 0.00 0.00 0.00 64 1011.4
20260504184009 80 269 8.0 14.0 0.00 0.00 0.00 64 1011.5
20260504183509 80 167 4.0 11.0 0.00 0.00 0.00 65 1011.6
20260504183009 80 290 5.0 14.0 0.00 0.00 0.00 64 1011.8
20260504182509 79 205 5.0 14.0 0.00 0.00 0.00 66 1011.8
20260504182009 79 163 2.0 9.0 0.00 0.00 0.00 66 1011.9
20260504181509 79 260 4.0 10.0 0.00 0.00 0.00 66 1012.0
20260504181008 78 198 1.0 10.0 0.00 0.00 0.00 66 1011.9
20260504180509 78 229 3.0 10.0 0.00 0.00 0.00 66 1011.9
20260504180008 78 212 3.0 10.0 0.00 0.00 0.00 67 1012.0
20260504175509 78 46 3.0 9.0 0.00 0.00 0.00 68 1012.2
20260504174510 77 300 2.0 7.0 0.00 0.00 0.00 68 1012.3
20260504174008 76 198 1.0 7.0 0.00 0.00 0.00 70 1012.7
20260504173508 76 271 3.0 7.0 0.00 0.00 0.00 70 1012.8
20260504172512 76 138 4.0 6.0 0.00 0.00 0.00 70 1012.9
20260504172008 76 232 3.0 9.0 0.00 0.00 0.00 70 1012.9
20260504171508 76 269 3.0 18.0 0.00 0.00 0.00 70 1013.0
20260504171008 76 176 3.0 18.0 0.00 0.00 0.00 71 1013.0
20260504170508 75 182 6.0 14.0 0.00 0.00 0.00 72 1013.1
20260504151007 71 190 2.0 8.0 0.00 0.00 0.00 75 1013.8
20260504150507 71 134 7.0 8.0 0.00 0.00 0.00 75 1014.0
20260504140506 68 129 3.0 6.0 0.00 0.00 0.00 76 1014.1
20260504081533 63 156 3.0 3.0 0.00 0.00 0.00 74 1014.5
20260504081032 63 236 1.0 3.0 0.00 0.00 0.00 74 1014.6
20260504080533 63 120 0.0 4.0 0.00 0.00 0.00 73 1014.6
20260504050531 66 259 2.0 3.0 0.00 0.00 0.00 64 1016.7
20260504045531 66 197 2.0 4.0 0.00 0.00 0.00 63 1016.6
20260504045031 66 136 2.0 4.0 0.00 0.00 0.00 63 1016.6
20260504044531 66 221 1.0 5.0 0.00 0.00 0.00 62 1016.6
20260504044031 67 195 2.0 5.0 0.00 0.00 0.00 62 1016.7
20260504043531 67 136 3.0 3.0 0.00 0.00 0.00 62 1016.6
20260504043031 67 215 1.0 3.0 0.00 0.00 0.00 61 1016.6
20260504042531 67 138 1.0 2.0 0.00 0.00 0.00 61 1016.7
20260504042031 67 107 2.0 2.0 0.00 0.00 0.00 61 1016.8
20260504041531 67 140 2.0 4.0 0.00 0.00 0.00 60 1016.8
20260504041031 67 134 2.0 4.0 0.00 0.00 0.00 60 1016.7
20260504040530 67 170 0.0 4.0 0.00 0.00 0.00 59 1016.8
20260504040031 67 146 3.0 4.0 0.00 0.00 0.00 59 1016.8
20260504035530 67 216 3.0 4.0 0.00 0.00 0.00 58 1016.8
20260504035030 67 237 2.0 5.0 0.00 0.00 0.00 58 1016.8
20260504034530 67 153 2.0 5.0 0.00 0.00 0.00 58 1016.7
20260504034030 67 154 1.0 4.0 0.00 0.00 0.00 57 1016.7
20260504033030 66 205 1.0 8.0 0.00 0.00 0.00 57 1016.6
20260504032530 66 132 2.0 8.0 0.00 0.00 0.00 57 1016.6
20260504032030 66 134 3.0 3.0 0.00 0.00 0.00 56 1016.7
20260504031530 66 109 0.0 0.0 0.00 0.00 0.00 56 1016.6
20260504031030 66 109 0.0 0.0 0.00 0.00 0.00 55 1016.6
20260504030530 66 176 0.0 2.0 0.00 0.00 0.00 55 1016.5
20260504030030 67 169 1.0 2.0 0.00 0.00 0.00 54 1016.5
20260504025529 67 169 0.0 0.0 0.00 0.00 0.00 53 1016.3
20260504025030 67 169 0.0 0.0 0.00 0.00 0.00 52 1016.2
20260504024530 67 169 0.0 0.0 0.00 0.00 0.00 52 1016.2
20260504023529 68 169 0.0 0.0 0.00 0.00 0.00 51 1016.2
20260504023029 68 169 0.0 0.0 0.00 0.00 0.00 51 1016.2
20260504022529 68 169 0.0 1.0 0.00 0.00 0.00 51 1016.1
20260504022029 69 169 0.0 1.0 0.00 0.00 0.00 50 1016.2
20260504021529 69 169 0.0 1.0 0.00 0.00 0.00 50 1016.3
20260504021029 69 169 0.0 1.0 0.00 0.00 0.00 50 1016.3
20260504020029 70 198 0.0 0.0 0.00 0.00 0.00 49 1016.3
20260504015529 70 198 0.0 0.0 0.00 0.00 0.00 48 1015.9
20260504015029 71 198 0.0 0.0 0.00 0.00 0.00 47 1015.8
20260504014528 71 198 0.0 0.0 0.00 0.00 0.00 46 1015.6
20260504014028 72 198 0.0 0.0 0.00 0.00 0.00 46 1015.6
20260504013528 72 198 0.0 0.0 0.00 0.00 0.00 46 1015.7
20260504013028 73 198 0.0 0.0 0.00 0.00 0.00 46 1015.6
20260504012528 73 198 0.0 0.0 0.00 0.00 0.00 45 1015.6
20260504011528 74 193 1.0 1.0 0.00 0.00 0.00 44 1015.6
20260504011028 74 150 0.0 1.0 0.00 0.00 0.00 44 1015.6
20260504005528 75 196 1.0 2.0 0.00 0.00 0.00 43 1015.6
20260504005028 76 173 0.0 2.0 0.00 0.00 0.00 42 1015.5
20260504004528 76 148 1.0 3.0 0.00 0.00 0.00 42 1015.5
20260504004028 76 105 1.0 3.0 0.00 0.00 0.00 41 1015.5
20260504002528 77 115 3.0 4.0 0.00 0.00 0.00 40 1015.6
20260504002027 77 141 3.0 7.0 0.00 0.00 0.00 40 1015.8
20260504001527 77 186 2.0 7.0 0.00 0.00 0.00 39 1015.9
20260504001027 78 205 2.0 4.0 0.00 0.00 0.00 39 1015.9
20260504000527 78 250 2.0 10.0 0.00 0.00 0.00 39 1016.0
20260504000027 78 132 8.0 10.0 0.00 0.00 0.00 39 1016.0
20260503235527 78 197 1.0 5.0 0.00 0.00 0.00 39 1016.1
20260503235027 78 185 1.0 5.0 0.00 0.00 0.00 39 1016.1
20260503234527 79 204 2.0 5.0 0.00 0.00 0.00 38 1016.2
20260503234026 79 128 4.0 10.0 0.00 0.00 0.00 39 1016.1
20260503233526 78 101 10.0 10.0 0.00 0.00 0.00 39 1016.1
20260503232526 78 144 2.0 6.0 0.00 0.00 0.00 39 1016.2
20260503232026 79 205 1.0 6.0 0.00 0.00 0.00 39 1016.3
20260503231526 79 150 1.0 7.0 0.00 0.00 0.00 38 1016.3
20260503230526 79 186 3.0 4.0 0.00 0.00 0.00 38 1016.0
20260503230026 79 163 2.0 4.0 0.00 0.00 0.00 38 1016.1
20260503225526 79 137 4.0 4.0 0.00 0.00 0.00 38 1016.2
20260503225026 80 178 2.0 4.0 0.00 0.00 0.00 37 1016.2
20260503224526 80 244 2.0 6.0 0.00 0.00 0.00 37 1016.3
20260503224026 80 121 5.0 6.0 0.00 0.00 0.00 37 1016.4
20260503223526 81 145 3.0 5.0 0.00 0.00 0.00 37 1016.5
20260503223026 81 318 1.0 4.0 0.00 0.00 0.00 38 1016.7
20260503222526 81 227 2.0 3.0 0.00 0.00 0.00 37 1016.7
20260503222026 81 155 2.0 8.0 0.00 0.00 0.00 37 1016.7
20260503221526 80 166 3.0 11.0 0.00 0.00 0.00 37 1016.7
20260503221026 80 140 5.0 11.0 0.00 0.00 0.00 37 1016.9
20260503220526 80 132 5.0 8.0 0.00 0.00 0.00 37 1016.9
20260503215526 80 134 4.0 8.0 0.00 0.00 0.00 36 1017.1
20260503215026 80 112 3.0 5.0 0.00 0.00 0.00 37 1017.1
20260503214525 80 217 1.0 9.0 0.00 0.00 0.00 37 1017.1
20260503214026 81 135 8.0 9.0 0.00 0.00 0.00 37 1017.2
20260503213525 81 304 1.0 5.0 0.00 0.00 0.00 37 1017.3
20260503213025 81 109 4.0 10.0 0.00 0.00 0.00 37 1017.4
20260503212525 81 119 2.0 10.0 0.00 0.00 0.00 37 1017.5
20260503212025 81 192 3.0 8.0 0.00 0.00 0.00 37 1017.6
20260503211525 80 240 1.0 4.0 0.00 0.00 0.00 38 1017.8
20260503211025 80 190 2.0 9.0 0.00 0.00 0.00 37 1017.8
20260503210525 80 109 2.0 11.0 0.00 0.00 0.00 37 1017.9
20260503205526 80 195 2.0 10.0 0.00 0.00 0.00 37 1018.2
20260503205025 80 101 7.0 8.0 0.00 0.00 0.00 38 1018.3
20260503204525 80 134 8.0 8.0 0.00 0.00 0.00 37 1018.2
20260503204025 80 158 2.0 9.0 0.00 0.00 0.00 38 1018.4
20260503203525 80 207 2.0 9.0 0.00 0.00 0.00 38 1018.5
20260503203025 80 331 2.0 11.0 0.00 0.00 0.00 38 1018.7
20260503202525 80 140 3.0 11.0 0.00 0.00 0.00 39 1018.7
20260503202025 81 165 5.0 6.0 0.00 0.00 0.00 39 1018.7
20260503201025 80 248 4.0 8.0 0.00 0.00 0.00 39 1018.7
20260503200525 80 295 2.0 11.0 0.00 0.00 0.00 39 1018.9
20260503200025 80 188 3.0 11.0 0.00 0.00 0.00 39 1019.1